Вернуться в каталог

STARLINK-4391

АктивенСвязьSSO
NORAD 53189·PAYLOAD·🇺🇸 United States

Запущен Jul 22, 2022 с Vandenberg Space Force Base

Loading…

Ближайшие Пролёты (ближайшие 24 часа)

TLE

СвежийSource: CelesTrak SupGP

Эпоха: Sep 15, 2026, 01:54 UTC

1 53189C 22084A   26258.07965278  .00066674  00000+0  20696-2 0  2580
2 53189  97.2831 313.9061 0001390  85.4537  36.7746 15.33407979    18

Отслеживайте STARLINK-4391 в реальном времени с AllMySat

Download on the App Store